Joplin, MO

5:16 AM CDT on August 21, 2019 (GMT -0500)
Joplin Regional

Weather History for KJLN - June, 2019

Change the Weather History Date:

Sunday, June 9, 2019

  Actual Average Record
Temperature  
Mean Temperature 74 °F 74 °F  
Max Temperature 84 °F 84 °F 97 °F (1953)
Min Temperature 62 °F 63 °F 50 °F (1978)
Degree Days  
Heating Degree Days 0 0  
Month to date heating degree days 0 2  
Since 1 June heating degree days 0 2  
Since 1 July heating degree days 4415 4071  
Cooling Degree Days 8 9  
Month to date cooling degree days 86 71  
Year to date cooling degree days 239 251  
Since 1 June cooling degree days 86 71  
Growing Degree Days 24 (Base 50)    
Moisture  
Dew Point 64 °F    
Average Humidity 75    
Maximum Humidity 100    
Minimum Humidity 55    
Precipitation  
Precipitation 0.00 in 0.21 in 2.43 in (1995)
Month to date precipitation 0.39 1.84  
Year to date precipitation 28.54 19.79  
Sea Level Pressure  
Sea Level Pressure 29.99 in    
Wind  
Wind Speed 5 mph ()    
Max Wind Speed 21 mph    
Max Gust Speed 29 mph    
Visibility 9.2 miles    
Events Fog    
T = Trace of Precipitation, MM = Missing Value Source: Averaged Metar Reports

Daily Weather History Graph

Daily Weather History Graph

Search for Another Location

Airport or City:

Astronomy

Jun. 09, 2019 Rise Set
Actual Time 5:57 AM CDT 8:37 PM CDT
Civil Twilight 5:26 AM CDT 9:07 PM CDT
Nautical Twilight 4:48 AM CDT 9:46 PM CDT
Astronomical Twilight 4:05 AM CDT 10:29 PM CDT
Moon 12:32 PM CDT (6/9) 1:21 AM CDT (6/9)
Length of Visible Light 15h 40m
Length of Day
14h 39m
Waxing Crescent, 44% of the Moon is Illuminated
Jun 9
Waxing Crescent
Jun 10
First Quarter
Jun 17
Full
Jun 25
Last Quarter
Jul 2
New

Hourly Weather History & Observations

Time (CDT) Temp. Heat Index Dew Point Humidity Pressure Visibility Wind Dir Wind Speed Gust Speed Precip Events Conditions
12:53 AM 66.0 °F - 64.0 °F 93% 29.86 in 6.0 mi Calm Calm - N/A   Clear
1:53 AM 64.9 °F - 63.0 °F 93% 29.85 in 9.0 mi Calm Calm - N/A   Clear
2:53 AM 63.0 °F - 62.1 °F 97% 29.86 in 6.0 mi Calm Calm - N/A   Clear
3:53 AM 64.0 °F - 62.1 °F 93% 29.87 in 7.0 mi Calm Calm - N/A   Clear
4:53 AM 62.1 °F - 61.0 °F 96% 29.87 in 6.0 mi Calm Calm - N/A   Clear
5:53 AM 63.0 °F - 62.1 °F 97% 29.91 in 8.0 mi Calm Calm - N/A Fog Patches of Fog
6:53 AM 64.0 °F - 63.0 °F 96% 29.95 in 8.0 mi Calm Calm - N/A   Clear
7:53 AM 72.0 °F - 64.9 °F 78% 29.94 in 10.0 mi NNE 8.1 mph - N/A   Clear
8:53 AM 75.0 °F - 66.9 °F 76% 29.96 in 10.0 mi North 5.8 mph - N/A   Clear
9:53 AM 73.9 °F - 66.9 °F 79% 29.99 in 10.0 mi NW 5.8 mph - N/A   Clear
10:53 AM 75.9 °F - 68.0 °F 76% 29.98 in 10.0 mi Variable 3.5 mph - N/A   Clear
11:53 AM 79.0 °F - 68.0 °F 69% 30.01 in 10.0 mi WNW 6.9 mph - N/A   Clear
12:53 PM 81.0 °F 84.1 °F 69.1 °F 67% 30.01 in 10.0 mi WNW 9.2 mph - N/A   Clear
1:53 PM 81.0 °F 84.1 °F 69.1 °F 67% 30.00 in 10.0 mi NNW 9.2 mph - N/A   Scattered Clouds
2:53 PM 82.0 °F 84.5 °F 66.9 °F 60% 30.01 in 10.0 mi NW 13.8 mph - N/A   Mostly Cloudy
3:53 PM 84.0 °F 86.3 °F 66.0 °F 55% 30.01 in 10.0 mi NNW 10.4 mph - N/A   Clear
4:53 PM 84.0 °F 86.5 °F 66.9 °F 56% 30.02 in 10.0 mi North 16.1 mph 24.2 mph N/A   Scattered Clouds
5:53 PM 82.0 °F 84.1 °F 66.0 °F 58% 30.03 in 10.0 mi North 12.7 mph - N/A   Clear
6:53 PM 79.0 °F - 66.0 °F 64% 30.04 in 10.0 mi NNW 17.3 mph 25.3 mph N/A   Clear
7:53 PM 75.0 °F - 64.0 °F 69% 30.06 in 10.0 mi NNW 12.7 mph 19.6 mph N/A   Clear
8:53 PM 72.0 °F - 62.1 °F 71% 30.10 in 10.0 mi NNW 15.0 mph - N/A   Mostly Cloudy
9:53 PM 71.1 °F - 61.0 °F 70% 30.13 in 10.0 mi NNW 15.0 mph 23.0 mph N/A   Overcast
10:53 PM 68.0 °F - 55.0 °F 63% 30.18 in 10.0 mi NNW 13.8 mph - N/A   Mostly Cloudy
11:53 PM 66.9 °F - 54.0 °F 63% 30.19 in 10.0 mi North 11.5 mph - N/A   Overcast